Weather Roundup
Issued by NWS Chicago, IL

Home | Current Version | Previous Version | Text Only | Print | Product List | Glossary Off
Versions: 1 2 3 4 5 6 7 8 9 10 11 12 13 14 15 16 17 18 19 20 21 22 23 24 25 26 27 28 29 30 31 32 33 34 35 36 37 38 39 40 41 42 43 44 45 46 47 48 49 50

000
NZUS59 KLOT 270600
HRRLOT

CHICAGO AREA WEATHER ROUNDUP
NATIONAL WEATHER SERVICE CHICAGO/ROMEOVILLE IL
100 AM CDT WED MAY 27 2015

NOTE: "FAIR" INDICATES FEW OR NO CLOUDS BELOW 12,000 FEET WITH NO
SIGNIFICANT WEATHER AND/OR OBSTRUCTIONS TO VISIBILITY.

* THESE STATIONS ARE NOT UNDER NWS QUALITY CONTROL. THEY ALSO MAY NOT
  REPORT WEATHER SUCH AS PRECIPITATION OR FOG.

ILZ005-006-012>014-019>023-270700-
NORTHEAST ILLINOIS

CITY           SKY/WX    TMP DP  RH WIND       PRES   REMARKS
OHARE          MOCLDY    69  61  75 SW16G23   29.84R
6HR MIN TEMP:  67; 6HR MAX TEMP:  69; 6HR PCP: TRACE;

MIDWAY         NOT AVBL
AURORA         MOCLDY    67  61  81 SW10      29.85S
6HR MIN TEMP:  67; 6HR MAX TEMP:  71; 6HR PCP:  0.01;

WAUKEGAN       RAIN      64  61  90 SW10      29.82S FOG
DUPAGE AIRPORT CLOUDY    67  62  84 SW10      29.85R
6HR MIN TEMP:  66; 6HR MAX TEMP:  71; 6HR PCP:  0.01;

WHEELING       LGT RAIN  68  61  78 SW15G23   29.85R
6HR MIN TEMP:  67; 6HR MAX TEMP:  72; 6HR PCP:  0.01;

NORTHERLY IS     N/A     70  60  70 S23         N/A
$$

WIZ051-052-058>065-066-070>072-270700-
SOUTHEAST WISCONSIN

CITY           SKY/WX    TMP DP  RH WIND       PRES   REMARKS
MILWAUKEE      MOCLDY    66  59  78 SW14      29.79S
6HR MIN TEMP:  64; 6HR MAX TEMP:  72;

$$

INZ001>003-010>013-019-020-270700-
NORTHWEST INDIANA

CITY           SKY/WX    TMP DP  RH WIND       PRES   REMARKS
GARY*          NOT AVBL
MICHIGAN CITY* NOT AVBL
RENSSELAER*    NOT AVBL
$$

LMZ740>746-270700-
SOUTHERN LAKE MICHIGAN

STATION/POSITION TIME  SKY/WX   TEMP WIND        PRES    VSBY
                                AIR  DIR/SP/G
                 (UTC)          (F)  (DEG/KT/KT) (MB)    (MI)
HARRISON CRIB    0500            69  200/ 22/ 26   N/A
BURNHAM HARBOR   0500            70  200/ 12/ 17   N/A
CALUMET HARBOR   NOT AVBL
BURNS HARBOR     0500            68  190/ 16/ 20 1012.2F
MICHIGAN CITY    0500            69  170/ 16/ 19   N/A
$$

ABBREVIATIONS USED IN REMARKS
   TC - TEMPERATURE IN CELSIUS
  WCI - WIND CHILL INDEX
   HX - HEAT INDEX
  VSB - VISIBILITY
$$



USA.gov is the U.S. government's official web portal to all federal, state and local government web resources and services.